Regional Weather Roundup
Issued by NWS Albany, NY

Current Version | Previous Version | Graphics & Text | Print | Product List | Glossary Off
Versions: 1 2 3 4 5 6 7 8 9 10 11 12 13 14 15 16 17 18 19 20 21 22 23 24 25 26 27 28 29 30 31 32 33 34 35 36 37 38 39 40 41 42 43 44 45 46 47 48 49 50

000
ASUS41 KALY 042310
RWRALY

NEW YORK STATE HOURLY WEATHER ROUNDUP
NATIONAL WEATHER SERVICE ALBANY NY
700 PM EDT MON MAY 04 2015

NOTE: "FAIR" INDICATES FEW OR NO CLOUDS BELOW 12,000 FEET WITH NO
SIGNIFICANT WEATHER AND/OR NO OBSTRUCTIONS TO VISIBILITY.

NYZ032-033-038>043-046>054-057>066-NYZ062>081-050000-
EAST


CITY           SKY/WX    TMP DP  RH WIND       PRES   REMARKS
ALBANY         MOCLDY    83  38  20 SW10      30.01S
GLENS FALLS    MOCLDY    81  40  23 SW8       29.99F
POUGHKEEPSIE   PTCLDY    84  38  19 SW13G25   30.05S
NEWBURGH       CLEAR     81  43  26 W14G23    30.09S
MONTGOMERY     CLEAR     81  43  26 SW16G22   30.06S
WHITE PLAINS   CLEAR     73  43  33 S7        30.11F
ISLIP          CLEAR     66  44  45 S13       30.15F
NEW YORK CITY  PTCLDY    76  45  33 S10       30.11S
CENTRAL PARK   CLEAR     82  40  22 VRB6      30.14S
$$

NYZ005>009-017-018-044>046-055-056-050000-
CENTRAL


CITY           SKY/WX    TMP DP  RH WIND       PRES   REMARKS
FULTON         LGT RAIN  64  49  57 NW12      30.06R
SYRACUSE       CLOUDY    73  46  38 NW9       30.05R
ROME           LGT RAIN  72  45  37 NW10      30.04R
ELMIRA         CLOUDY    80  43  26 W10       30.05R
BINGHAMTON     CLOUDY    76  40  27 SW12G18   30.08S
MONTICELLO     PTCLDY    77  39  25 W15       30.12S
$$

NYZ026>034-041>043-050000-
NORTH


CITY           SKY/WX    TMP DP  RH WIND       PRES   REMARKS
WATERTOWN      LGT RAIN  65  50  58 SW14G21   30.04R
FORT DRUM      NOT AVBL
MASSENA        LGT RAIN  64  55  72 W10       30.02R
SARANAC LAKE   CLOUDY    68  43  40 W13G23    30.04R
PLATTSBURGH    CLOUDY    79  39  23 W13G21    29.97R
$$

NYZ001>004-010>016-019>021-050000-
WEST


CITY           SKY/WX    TMP DP  RH WIND       PRES   REMARKS
NIAGARA FALLS  CLOUDY    67  54  63 SW9       30.07R
BUFFALO        CLOUDY    57  50  77 SW16      30.11R
DUNKIRK        CLOUDY    60  53  77 SW15G23   30.13R
JAMESTOWN      CLOUDY    64  52  63 W15       30.17R
WELLSVILLE     CLOUDY    75  42  30 W14G23    30.13S
ROCHESTER      CLOUDY    70  51  51 W13G21    30.07R
PENN YAN       CLOUDY    75  48  38 W7        30.07R
$$

             KEY
       WCI = WIND CHILL INDEX
       VSB = VISIBILITY
       HX  = HEAT INDEX
$$



USA.gov is the U.S. government's official web portal to all federal, state and local government web resources and services.